Richmond, VA

3:58 PM EDT on May 28, 2017 (GMT -0400)
Richmond International

Weather History for KRIC - May, 2012

Change the Weather History Date:

Wednesday, May 30, 2012

  Actual Average Record
Temperature  
Mean Temperature 72 °F 70 °F  
Max Temperature 78 °F 81 °F 98 °F (1991)
Min Temperature 66 °F 60 °F 42 °F (1932)
Degree Days  
Heating Degree Days 0 1  
Month to date heating degree days 10 73  
Since 1 July heating degree days 2855 3765  
Cooling Degree Days 7 6  
Month to date cooling degree days 174 110  
Year to date cooling degree days 242 152  
Growing Degree Days 22 (Base 50)    
Moisture  
Dew Point 67 °F    
Average Humidity 80    
Maximum Humidity 97    
Minimum Humidity 62    
Precipitation  
Precipitation 0.21 in 0.13 in 1.15 in (1992)
Month to date precipitation 2.45 3.65  
Year to date precipitation 12.31 16.76  
Snow  
Snow 0.00 in 0.00 in 0.00 in (2002)
Month to date snowfall 0.0 0.0  
Since 1 July snowfall 4.5 10.3  
Snow Depth 0.00 in    
Sea Level Pressure  
Sea Level Pressure 29.80 in    
Wind  
Wind Speed 4 mph (NNW)    
Max Wind Speed 12 mph    
Max Gust Speed 14 mph    
Visibility 9 miles    
Events Rain , Thunderstorm    
T = Trace of Precipitation, MM = Missing Value Source: NWS Daily Summary

Daily Weather History Graph

Daily Weather History Graph

Search for Another Location

Airport or City:

Trip Planner

Search our weather history database for the weather conditions in past years. The results will help you decide how hot, cold, wet, or windy it might be!

Date:

Astronomy

May. 30, 2012 Rise Set
Actual Time 5:50 AM EDT 8:23 PM EDT
Civil Twilight 5:19 AM EDT 8:54 PM EDT
Nautical Twilight 4:42 AM EDT 9:32 PM EDT
Astronomical Twilight 4:00 AM EDT 10:14 PM EDT
Moon 3:05 PM EDT (5/30) 2:07 AM EDT (5/30)
Length of Visible Light 15h 34m
Length of Day
14h 33m
Waxing Gibbous, 70% of the Moon is Illuminated
May 30
Waxing Gibbous
Jun 4
Full
Jun 11
Last Quarter
Jun 19
New
Jun 26
First Quarter

Hourly Weather History & Observations

Time (EDT) Temp. Dew Point Humidity Pressure Visibility Wind Dir Wind Speed Gust Speed Precip Events Conditions
12:06 AM 77.0 °F 71.6 °F 83% 29.84 in 10.0 mi SSW 11.5 mph - N/A Rain , Thunderstorm Light Thunderstorms and Rain
12:30 AM 75.2 °F 71.6 °F 89% 29.83 in 10.0 mi WSW 9.2 mph - 0.00 in   Overcast
12:39 AM 77.0 °F 69.8 °F 78% 29.83 in 10.0 mi West 9.2 mph - 0.00 in   Overcast
12:54 AM 75.9 °F 66.0 °F 71% 29.83 in 10.0 mi West 6.9 mph - 0.00 in   Overcast
1:54 AM 73.9 °F 64.9 °F 73% 29.82 in 10.0 mi NW 4.6 mph - N/A   Overcast
2:54 AM 72.0 °F 64.9 °F 78% 29.81 in 10.0 mi WNW 4.6 mph - N/A   Overcast
3:54 AM 72.0 °F 66.0 °F 81% 29.81 in 10.0 mi West 4.6 mph - N/A   Overcast
4:54 AM 71.1 °F 66.9 °F 87% 29.80 in 10.0 mi Calm Calm - 0.01 in Rain Light Rain
5:54 AM 70.0 °F 68.0 °F 93% 29.82 in 3.0 mi SW 5.8 mph - 0.05 in Rain Light Rain
6:23 AM 69.8 °F 68.0 °F 94% 29.81 in 8.0 mi SSW 3.5 mph - 0.05 in Rain Light Rain
6:54 AM 70.0 °F 68.0 °F 93% 29.83 in 8.0 mi West 4.6 mph - 0.05 in Rain Light Rain
7:20 AM 69.8 °F 68.0 °F 94% 29.82 in 3.0 mi SW 3.5 mph - 0.02 in Rain Light Rain
7:54 AM 70.0 °F 68.0 °F 93% 29.82 in 8.0 mi Calm Calm - 0.03 in Rain Light Rain
8:54 AM 71.1 °F 69.1 °F 93% 29.82 in 10.0 mi Calm Calm - 0.02 in Rain Light Rain
9:27 AM 69.8 °F 68.0 °F 94% 29.81 in 10.0 mi Calm Calm - 0.01 in Rain Light Rain
9:54 AM 70.0 °F 68.0 °F 93% 29.82 in 9.0 mi Calm Calm - 0.02 in Rain Light Rain
10:54 AM 70.0 °F 68.0 °F 93% 29.83 in 10.0 mi NNE 4.6 mph - 0.02 in Rain Light Rain
11:54 AM 71.1 °F 68.0 °F 90% 29.83 in 10.0 mi NNE 4.6 mph - 0.01 in Rain Light Rain
12:54 PM 73.0 °F 68.0 °F 84% 29.81 in 10.0 mi NE 6.9 mph - 0.00 in   Overcast
1:54 PM 73.0 °F 68.0 °F 84% 29.80 in 10.0 mi NE 4.6 mph - N/A   Overcast
2:18 PM 73.4 °F 68.0 °F 83% 29.78 in 10.0 mi NNE 6.9 mph - N/A   Overcast
2:54 PM 73.0 °F 68.0 °F 84% 29.78 in 10.0 mi NE 9.2 mph - N/A   Overcast
3:54 PM 73.9 °F 66.9 °F 79% 29.75 in 10.0 mi NNE 6.9 mph - N/A   Mostly Cloudy
4:54 PM 77.0 °F 66.0 °F 69% 29.74 in 10.0 mi North 10.4 mph - N/A   Mostly Cloudy
5:54 PM 78.1 °F 64.9 °F 64% 29.73 in 10.0 mi NNE 8.1 mph - N/A   Mostly Cloudy
6:54 PM 77.0 °F 64.9 °F 66% 29.74 in 10.0 mi NNE 8.1 mph - N/A   Scattered Clouds
7:54 PM 73.9 °F 64.9 °F 73% 29.75 in 10.0 mi North 4.6 mph - N/A   Partly Cloudy
8:54 PM 72.0 °F 64.9 °F 78% 29.74 in 10.0 mi Calm Calm - N/A   Partly Cloudy
9:54 PM 69.1 °F 64.9 °F 87% 29.76 in 10.0 mi Calm Calm - N/A   Partly Cloudy
10:54 PM 66.9 °F 64.0 °F 90% 29.77 in 10.0 mi Calm Calm - N/A   Clear
11:54 PM 68.0 °F 64.9 °F 90% 29.77 in 10.0 mi Calm Calm - N/A   Clear